EHI
0 0 1 2 1 1 2 1 0 0 1 5 7 5 3 3 3 4 3 1 1 2 2 2 2 3 3 3 3 3 3 2 2 3 3 2 1 1 2 3 1 0 0
0 0 1 2 1 1 2 2 1 0 1 4 6 6 5 4 4 4 3 1 0 1 1 1 2 3 3 3 3 3 2 1 1 2 2 1 0 0 1 2 1 0 0
0 0 1 2 2 2 3 3 2 2 1 3 5 6 6 5 5 5 3 1 0 0 0 1 2 3 3 3 2 1 1 0 0 0 0 0 0 0 0 0 0 0 0
0 0 1 2 3 3 4 5 4 2 1 3 5 6 5 5 5 4 2 1 0 0 0 0 1 1 2 1 1 0 1 1 0 0 0 0 0 0 0 0 0 0 0
0 0 0 1 3 3 4 5 4 2 1 3 5 5 3 3 4 3 2 0 0 0 0 0 0 0 0 0 0 1 2 1 0 0 0 0 0 0 0 0 0 0 0
0 0 0 2 3 4 4 4 3 1 0 2 4 3 2 2 3 3 2 1 0 0 0 0 0 0 0 0 0 1 1 1 0 0 0 0 0 0 0 0 0 0 0
0 0 1 3 4 5 4 3 1 0 0 1 2 1 1 2 2 1 1 1 1 0 0 0 0 0 0 0 0 0 0 0 0 0 0 0 0 0 0 0 0 0 0
0 0 1 3 4 4 3 1 0 0 0 0 1 1 2 2 2 1 0 1 1 0 0 0 0 0 0 0 0 0 0 0 0 0 0 0 0 0 0 0 0 0 0
0 0 0 1 2 2 1 0 0 0 0 0 1 2 2 1 1 0 0 0 0 0 0 0 0 0 0 0 0 0 1 0 0 0 0 0 0 0 0 0 0 0 0
0 0 0 0 0 0 0 0 0 0 0 0 1 1 1 0 0 0 0 0 0 0 0 0 0 0 0 0 0 0 0 0 0 0 0 0 0 0 0 0 0 0 0
1 0 0 0 0 0 0 0 0 0 0 0 0 0 0 0 0 0 0 0 0 0 0 0 0 0 0 0 0 0 0 0 0 0 0 0 0 0 0 0 0 0 0
2 1 0 0 0 0 0 0 0 0 0 0 0 0 0 0 0 0 0 0 0 0 0 0 0 0 0 0 0 0 0 0 0 0 0 0 0 0 0 0 0 0 0
2 1 0 0 0 0 0 0 0 0 0 0 0 0 0 0 0 0 0 0 0 0 0 0 0 0 0 0 0 0 0 0 0 0 0 0 0 0 0 0 0 0 0
1 0 0 0 0 0 0 0 0 0 0 0 0 0 0 0 0 0 0 0 0 0 0 0 0 0 0 0 0 0 0 0 0 0 0 0 0 0 0 0 0 0 0
1 0 0 0 0 0 0 0 0 0 0 0 0 0 0 0 0 0 0 0 0 0 0 0 0 0 0 0 0 0 0 0 0 0 0 0 0 0 0 0 0 0 1
1 0 0 0 0 0 0 0 0 0 0 0 0 0 0 0 0 0 0 0 0 0 0 0 0 0 0 0 0 0 0 0 0 0 0 0 0 0 0 0 0 1 2
1 0 0 0 0 0 0 0 0 0 0 0 0 0 0 0 0 0 0 0 0 0 0 0 0 0 0 0 0 0 0 0 0 0 0 0 0 0 0 0 0 1 2
0 0 0 0 0 0 0 0 0 0 0 0 0 0 0 0 0 0 0 0 0 0 0 0 0 0 0 0 0 0 0 0 0 0 0 0 0 0 0 0 0 0 1
0 0 0 0 0 0 0 0 0 0 0 0 0 0 0 0 0 0 0 0 0 0 0 0 0 0 0 0 0 0 0 0 0 0 0 0 0 0 0 0 0 0 0
0 0 0 0 0 0 0 0 0 0 0 0 0 0 0 0 0 0 0 0 0 0 0 0 0 0 0 0 0 0 0 0 0 0 0 0 0 0 0 0 0 0 0
0 0 0 0 0 0 0 0 0 0 0 0 0 0 0 0 0 0 0 0 0 0 0 0 0 0 0 0 0 0 0 0 0 0 0 0 0 0 0 0 0 0 0
0 0 0 0 0 0 0 0 0 0 0 0 0 0 0 0 0 0 0 0 0 0 0 0 0 0 0 0 0 0 0 0 0 0 0 0 0 0 0 0 0 0 0
0 0 0 0 0 0 0 0 0 0 0 0 0 0 0 0 0 0 0 0 0 0 0 0 0 0 0 0 0 0 0 0 0 0 0 0 0 0 0 0 0 0 0
0 0 0 0 0 0 0 0 0 0 0 0 0 0 0 0 0 0 0 0 0 0 0 0 0 0 0 0 0 0 0 0 0 0 0 0 0 0 0 0 0 0 0
0 0 0 0 0 0 0 0 0 0 0 0 0 0 0 0 0 0 0 0 0 0 0 0 0 0 0 0 0 0 0 0 0 0 0 0 0 0 0 0 0 0 0
0 0 0 0 0 0 0 0 0 0 0 0 0 0 0 0 0 0 0 0 0 0 0 0 0 0 0 0 0 0 0 0 0 0 0 0 0 0 0 0 0 0 0
Wind_Speed
0 1 5 7 8 8 9 9 8 9 10 10 10 10 11 11 11 11 11 11 10 10 10 10 10 10 10 10 10 10 10 10 10 10 10 10 9 9 10 9 8 5 8
2 1 5 7 8 8 9 9 9 9 10 10 10 10 10 11 11 10 10 11 11 10 10 10 10 10 10 10 9 9 10 9 10 10 10 9 9 9 9 9 8 5 7
3 2 4 7 8 8 9 9 9 10 10 10 10 10 10 10 10 10 10 10 10 11 11 10 10 10 10 10 9 9 9 8 9 10 9 4 5 9 9 8 8 8 7
4 2 4 7 8 8 9 9 10 10 10 9 10 10 10 10 10 10 10 10 10 10 11 10 10 10 10 10 10 10 9 10 10 9 5 3 3 8 9 8 8 8 8
3 2 4 8 8 8 8 9 9 9 9 9 9 9 9 9 9 9 10 10 10 10 10 10 9 10 10 10 10 10 10 10 10 7 4 3 3 7 9 8 8 8 8
3 3 4 8 7 8 8 8 8 8 9 9 9 9 9 9 9 9 9 9 10 9 9 9 9 9 9 9 9 9 10 10 8 5 4 3 2 7 8 8 7 7 8
4 2 4 8 7 8 8 8 8 8 8 9 9 8 9 9 9 9 9 9 9 9 9 9 9 9 9 9 9 9 9 10 6 4 3 3 3 7 7 7 7 7 7
5 3 3 7 8 8 8 8 8 7 7 8 8 8 8 8 8 8 8 8 8 8 9 9 8 8 9 9 9 9 9 8 6 4 3 3 6 7 8 8 7 7 7
4 4 2 3 4 6 7 7 7 7 6 7 7 7 7 7 7 7 8 8 8 8 8 8 7 7 8 8 8 9 10 10 4 2 4 2 6 8 8 7 7 7 7
4 4 3 2 2 2 3 6 6 5 6 6 6 6 7 7 6 6 7 7 8 8 7 7 6 6 7 7 8 9 9 7 4 3 2 3 7 8 8 8 7 7 7
4 3 3 3 3 2 2 3 4 4 4 4 4 5 5 3 2 3 4 5 6 6 6 6 6 6 6 7 8 9 7 3 3 2 2 5 7 7 8 7 7 7 7
3 4 3 3 3 2 2 2 1 1 1 1 2 2 2 1 1 2 4 5 5 5 5 5 6 6 6 4 6 7 3 4 3 2 2 6 7 7 7 7 7 7 7
4 4 4 4 3 3 2 2 1 1 1 1 2 2 2 2 1 2 2 2 3 3 2 3 3 3 3 3 3 3 3 3 2 2 3 7 7 7 7 7 7 7 7
4 4 4 5 4 3 2 2 2 1 1 1 2 3 2 2 1 1 1 1 1 1 2 2 2 3 3 4 4 4 4 3 2 2 3 7 8 8 7 7 7 7 6
4 4 5 5 5 4 3 2 2 2 1 1 1 2 3 2 2 1 1 1 1 1 1 2 2 4 4 4 4 4 4 4 3 3 3 7 8 8 7 7 7 6 6
4 4 4 5 4 4 3 2 2 2 1 2 2 2 3 2 2 2 2 2 1 1 1 2 3 4 3 3 4 4 4 3 3 3 2 4 7 8 8 7 7 7 6
5 5 5 5 4 4 3 3 2 2 2 2 1 2 3 3 3 3 2 2 1 2 2 3 3 3 3 3 4 4 3 3 3 3 3 2 3 6 7 7 8 8 7
5 5 5 5 5 4 3 3 2 2 2 1 2 2 3 3 4 3 3 2 2 2 3 3 3 3 3 3 3 3 3 3 3 3 3 3 3 3 5 7 8 8 7
6 5 5 5 5 4 4 3 3 2 2 2 2 2 3 3 3 3 2 2 2 2 2 3 2 2 3 3 3 3 3 3 3 3 3 3 2 3 3 5 8 8 7
5 5 6 5 5 4 4 3 2 3 2 2 2 2 2 2 3 3 2 2 3 3 3 3 3 3 2 2 4 4 3 3 3 3 3 3 2 3 3 4 4 5 8
6 6 5 5 4 4 3 2 2 1 1 1 1 2 2 2 3 3 3 2 3 3 2 3 3 3 2 2 3 3 4 4 3 3 3 3 3 3 3 3 3 3 4
6 6 5 5 4 3 2 2 2 2 1 1 1 2 2 2 2 3 3 2 2 3 3 3 3 2 1 1 2 2 2 3 3 4 2 2 3 3 3 3 3 3 3
6 6 6 5 4 3 3 3 3 3 2 2 2 1 1 1 2 3 3 2 2 2 2 2 3 3 2 0 1 3 3 1 1 3 3 3 2 2 2 2 3 3 3
6 6 5 5 4 4 4 4 4 3 1 1 1 0 0 1 2 2 3 3 2 2 2 2 2 2 3 1 0 1 2 3 3 0 2 3 3 2 2 2 2 3 3
6 6 5 5 4 3 4 5 4 2 1 1 1 1 0 0 1 2 3 2 2 1 2 1 2 2 2 2 1 1 2 2 2 3 1 1 2 2 1 1 1 2 2
5 5 5 5 4 3 4 4 4 4 2 2 1 1 0 0 0 1 2 2 2 1 2 2 1 2 2 1 1 1 2 2 2 2 2 1 0 2 2 1 1 1 1
Wind_Direction
300 273 92 87 82 82 85 83 88 88 87 86 86 83 84 87 89 89 87 87 86 84 82 80 82 83 87 93 98 99 99 99 97 95 94 92 90 90 91 90 87 77 86
170 157 107 92 87 86 89 89 91 90 89 88 87 86 86 90 90 92 90 90 89 88 85 80 79 82 84 88 92 96 97 98 96 93 90 87 87 89 89 90 88 86 86
136 124 106 98 92 91 92 90 92 92 91 89 87 87 89 91 91 92 90 91 91 90 87 83 79 80 80 84 86 90 94 98 97 91 85 69 79 88 90 90 90 87 85
130 126 116 106 98 96 96 92 93 94 92 92 90 89 89 90 91 94 95 95 95 92 89 84 82 81 81 82 85 86 87 90 94 90 75 63 74 88 88 89 88 87 82
121 124 127 114 107 103 100 97 96 95 95 93 91 91 92 92 91 94 97 97 96 95 92 87 83 82 81 79 79 79 81 86 88 85 79 66 66 92 91 88 85 83 80
123 126 134 124 116 108 106 105 100 96 97 98 94 92 92 95 93 92 95 98 98 97 95 91 88 85 81 78 77 77 79 80 79 78 77 79 80 98 95 91 86 79 75
134 137 140 129 123 117 113 111 107 101 100 98 96 94 93 92 90 91 93 97 100 100 99 96 91 86 83 78 75 77 76 79 76 77 74 79 90 97 96 93 88 83 80
144 145 139 132 127 123 119 116 113 107 104 99 95 96 96 94 92 93 95 98 102 104 103 99 95 89 82 77 73 75 75 76 77 81 68 72 95 94 93 92 84 81 76
142 139 142 132 128 130 128 124 121 113 107 108 101 98 98 97 94 97 98 99 103 105 102 99 96 91 85 79 75 78 77 76 66 67 80 72 94 94 95 90 83 79 76
142 144 150 142 130 133 132 135 132 127 119 118 114 102 96 94 93 97 101 103 106 104 100 98 95 89 82 79 78 78 74 67 56 53 56 83 91 91 91 88 83 79 77
152 161 163 160 165 167 163 146 140 135 125 120 113 108 94 63 58 77 102 110 111 111 104 95 88 80 76 73 76 76 69 57 52 49 56 83 86 85 84 84 83 80 78
170 172 166 165 172 179 157 124 117 117 81 84 95 100 100 88 67 79 78 98 101 97 94 91 82 69 63 59 68 71 65 60 50 44 71 88 88 85 82 82 83 80 77
167 155 159 162 158 152 134 120 106 89 75 86 110 116 103 87 63 55 51 44 47 57 48 59 56 50 60 67 68 69 68 65 56 43 61 81 85 84 81 80 80 75 75
132 137 142 148 141 138 129 117 117 115 107 99 108 119 112 99 88 85 75 57 43 44 55 48 60 61 67 77 82 79 76 77 70 55 58 74 79 79 76 76 76 71 71
117 118 130 138 138 135 124 125 113 114 115 107 97 111 115 114 109 91 69 67 60 68 87 80 76 80 76 76 79 84 85 84 78 64 46 64 68 68 73 75 76 73 72
118 115 118 125 131 125 120 115 118 123 120 96 85 95 111 114 109 100 86 74 73 76 82 88 89 89 82 80 72 73 81 86 82 74 52 45 55 60 60 64 69 73 74
133 122 120 128 118 114 120 125 116 116 104 92 85 87 105 111 110 110 96 76 74 79 79 78 77 81 83 75 68 67 70 72 81 75 62 44 39 50 53 58 65 67 72
136 132 132 130 114 110 108 107 104 103 96 85 80 84 103 111 111 104 96 84 80 86 87 86 83 82 74 71 66 61 61 62 70 76 69 58 45 36 41 55 61 60 63
139 132 122 119 118 114 109 98 91 87 85 84 78 76 92 99 100 101 97 98 92 87 89 100 87 95 89 76 73 62 52 52 51 71 75 67 56 43 33 43 49 48 51
136 128 121 119 117 110 95 83 69 66 60 61 81 86 98 100 101 102 98 93 90 88 80 88 95 80 90 89 80 63 45 42 45 52 66 63 52 52 48 42 32 33 39
129 129 126 123 123 114 101 99 92 79 61 50 71 98 108 110 107 109 105 94 92 98 107 109 105 94 84 98 85 53 32 33 40 36 44 54 49 47 51 47 38 31 29
140 140 138 142 138 130 127 134 134 129 112 73 33 59 95 114 120 121 120 119 113 107 99 103 110 106 108 119 112 95 41 12 14 24 28 50 45 43 48 53 46 43 35
142 151 153 152 145 143 131 105 79 59 42 33 25 29 41 117 126 125 127 119 121 122 132 139 137 137 149 212 135 136 137 174 345 359 15 27 31 47 42 44 50 41 41
159 154 144 146 149 146 131 126 127 125 140 209 214 247 343 131 134 130 130 135 134 132 144 162 145 148 142 145 25 96 146 152 142 70 354 5 19 34 33 50 50 45 39
154 149 146 142 145 147 140 143 137 135 171 192 135 110 52 6 146 135 134 134 139 154 167 159 139 145 147 150 158 124 93 87 109 134 149 340 360 355 8 33 52 49 36
147 144 143 145 149 154 150 149 149 156 162 148 140 139 169 314 67 136 134 138 155 170 180 176 162 162 168 159 159 151 151 149 156 140 148 167 325 325 356 6 33 48 33